Terminal Aerodrome Forecast
Issued by NWS Pittsburgh, PA

Current Version | Previous Version | Text Only | Print | Product List | Glossary Off
Versions: 1 2 3 4 5 6 7 8 9 10 11 12 13 14 15 16 17 18 19 20 21 22 23 24 25 26 27 28 29 30

000
FTUS41 KPBZ 291100
TAFPIT
TAF
KPIT 291127Z 2912/3018 23006KT P6SM BKN150
     FM291600 26010G16KT P6SM BKN040
     FM300000 28006KT P6SM BKN035
     FM300500 29006KT P6SM BKN025=

USA.gov is the U.S. government's official web portal to all federal, state and local government web resources and services.